Regional Weather Roundup
Issued by NWS

Home | Current Version | Previous Version | Text Only | Print | Product List | Glossary On
Versions: 1 2 3 4 5 6 7 8 9 10 11 12 13 14 15 16 17 18 19 20 21 22 23 24 25 26 27 28 29 30 31 32 33 34 35 36 37 38 39 40 41 42 43 44 45 46 47 48 49 50
059
ASUS45 KCYS 300210
RWRWY

WYOMING REGIONAL WEATHER ROUNDUP
NATIONAL WEATHER SERVICE CHEYENNE WY
800 PM MDT FRI JUL 29 2016

NOTE:  "FAIR" INDICATES FEW OR NO CLOUDS BELOW 12,000 FEET
WITH NO SIGNIFICANT WEATHER AND/OR OBSTRUCTIONS TO VISIBILITY.

WYZ001-300300-
YELLOWSTONE NATIONAL PARK

CITY           SKY/WX    TMP DP  RH WIND       PRES   REMARKS
LK YELLOWSTONE   N/A     71  37  28 CALM      30.24F
W YELLOWSTONE  NOT AVBL

$$
WYZ002>013-054>058-071-098>099-300300-
NORTHERN WYOMING

CITY           SKY/WX    TMP DP  RH WIND       PRES   REMARKS
JACKSON        NOT AVBL
CODY           FAIR      72  57  60 N8        30.08S
GREYBULL       LGT RAIN  85  47  26 N15       29.95R
WORLAND        FAIR      86  42  21 N7        29.96R
SHERIDAN       FAIR      83  47  28 E5        30.00R
BUFFALO        FAIR      76  48  37 W10       30.08R
GILLETTE       FAIR      78  46  32 NE10      30.03S
HULETT         FAIR      77  52  41 E3        30.06R
NEWCASTLE      MOCLDY    77  46  33 SE13      30.04S

$$
WYZ014>020-022>026-101>103-300300-
CENTRAL WYOMING

CITY           SKY/WX    TMP DP  RH WIND       PRES   REMARKS
BIG PINEY      FAIR      80  31  16 N15G23    30.16S
PINEDALE       FAIR      77  30  18 NW9       30.16S
DUBOIS         FAIR      72  39  30 SE9G21    30.17R
LANDER         FAIR      79  46  31 NW8       30.06R
RIVERTON       FAIR      80  41  24 NE14      30.04R
CASPER         FAIR      70  55  59 NE12G21   30.09F
DOUGLAS        FAIR      68  53  58 SE7       30.08S

$$
WYZ021-027>030-104>119-300300-
SOUTHERN WYOMING

CITY           SKY/WX    TMP DP  RH WIND       PRES   REMARKS
EVANSTON       FAIR      82  29  14 NW13      30.19S
KEMMERER         N/A     79  23  12 W17       30.19S
FORT BRIDGER   FAIR      83  26  12 NW16G23   30.20S
ROCK SPRINGS   FAIR      84  21  10 W18       30.11S
DIXON          FAIR      86  27  11 W13       30.11S
RAWLINS        FAIR      81  26  13 NE12      30.11R
SARATOGA       FAIR      75  27  16 W5        30.12F
LARAMIE        FAIR      68  51  54 SE17      30.19S
CHEYENNE       FAIR      67  53  61 S7        30.15F
TORRINGTON     FAIR      64  60  87 SE9       30.04F
PINE BLUFFS    FAIR      68  54  60 E13G22    30.14R

$$




USA.gov is the U.S. government's official web portal to all federal, state and local government web resources and services.